Location: Sternwarte Zollern-Alb
(48.2880°N, 8.6780°E)
Time: 03:23:03
(UTC+02:00)

ISS - Pass Details

Date: 25 April 2026
Orbit: 414 x 424 km, 51.6° (Epoch: 19 May)

Event Time Altitude Azimuth Distance (km) Brightness Sun altitude
Exits shadow 04:45:28 28° 243° (WSW) 818 -2.9 -14.0°
Maximum altitude 04:47:06 85° 160° (SSE) 425 -3.8 -13.8°
Drops below altitude 10° 04:50:29 10° 69° (ENE) 1,505 0.3 -13.3°
Sets 04:52:36 0° 68° (ENE) 2,374 1.7 -13.1°
